Starlink 35977

operational
NORAD ID: 66604 Int'l Des: 2025-270 Owner: SPXS Country: US Constellation: starlink
LEOCIRCULAR

About Starlink 35977

Description loading...

Live Position

Loading 3D Globe...

Upcoming Passes

Altitude History

Altitude vs Time

uPlot chart will show altitude changes over time

Two-Line Element Set

1 66604U 25270S 26019.56614505 .00043911 00000-0 10520-2 0 9996
2 66604 43.0046 334.4198 0001386 269.1127 90.9571 15.40713001 10182
Epoch: Jan 19, 2026 • Age: 7 hours

Current Status

Altitude 444.8 km
Velocity 7.65 km/s
Sub-Earth Point 27.78°N, 53.32°E
Launch Date Nov 22, 2025
Age 0.1 years
Type internet

Technical Details

Classification Payload
Mass 575.00 kg
Dry Mass 530.00 kg
Total Mass 575.00 kg
Length 0.30 m
Diameter 4.10 m
Span 29.00 m
Shape Box + pan
Manufacturer SPXS
Bus Type Starlink V2MO
Phase Status In Orbit
Owner/State SPXS/US

Large Constellations

Loading constellations...